Home > Weather > Libreville > Past weeks

Flag for Gabon Past Weather in Libreville, Gabon — Yesterday and Last 2 Weeks

Now
75 °F

Passing clouds.


Feels Like: 77 °F
Forecast: 75 / 81 °F
Wind: 10 mph from Southeast

Location: Libreville Airport

Current Time: Jul 28, 2016 at 9:43:37 AM

Latest Report: Jul 28, 2016 at 9:00 AM


Visibility: N/A

Pressure: 30.01 "Hg

Humidity: 74%

Dew Point: 66 °F

Location of LibrevilleLocation

Past Weather in Libreville — Graph

°F

Libreville Temperature Yesterday

Maximum temperature yesterday: 82 °F (at 1:00 PM)
Minimum temperature yesterday: 73 °F (at 5:00 AM)
Average temperature yesterday: 78 °F

High & Low Weather Summary for the Past Weeks

 TemperatureHumidityPressure
High84 °F (Jul 13, 2:00 PM)94% (Jul 19, 5:00 AM)30.01 "Hg (Jul 19, 5:00 AM)
Low72 °F (Jul 28, 6:00 AM)58% (Jul 16, 2:00 PM)29.83 "Hg (Jul 16, 3:00 PM)
Average79 °F77%29.93 "Hg
* Reported Jul 13 8:00 AM — Jul 28 8:00 AM, Libreville, Weather by CustomWeather, © 2016

Note: Actual official high and low records may vary slightly from our data, if they occured in-between our weather recording intervals... More about our weather records

Advertising

Libreville Weather History for the Previous 24 Hours

Scroll right to see more
 ConditionsComfort  
Time TempWeatherWind HumidityBarometerVisibility
8:00 AM
Thu, Jul 28
73 °FPassing clouds.9 mph78%29.98 "Hg6 mi
7:30 AM72 °FPassing clouds.10 mph83%29.98 "Hg6 mi
7:00 AM72 °FPassing clouds.9 mph83%29.95 "Hg5 mi
6:00 AM72 °FPassing clouds.9 mph83%29.95 "Hg5 mi
5:00 AM73 °FPassing clouds.12 mph78%29.95 "Hg5 mi
4:00 AM73 °FPassing clouds.12 mph78%29.95 "Hg5 mi
3:00 AM73 °FPassing clouds.12 mph78%29.92 "Hg5 mi
2:00 AM75 °FPassing clouds.10 mph74%29.95 "Hg5 mi
1:00 AM75 °FPassing clouds.9 mph78%29.95 "HgN/A
12:00 AM75 °FPassing clouds.13 mph78%29.95 "HgN/A
11:00 PM
Wed, Jul 27
77 °FPassing clouds.10 mph74%29.95 "HgN/A
10:00 PM77 °FPassing clouds.8 mph79%29.95 "HgN/A
9:00 PM77 °FPassing clouds.9 mph79%29.95 "HgN/A
8:00 PM77 °FPassing clouds.8 mph79%29.92 "HgN/A
7:00 PM79 °FPassing clouds.8 mph79%29.92 "HgN/A
6:00 PM79 °FPassing clouds.7 mph79%29.89 "HgN/A
5:00 PM81 °FPassing clouds.8 mph74%29.89 "HgN/A
4:00 PM81 °FPassing clouds.10 mph74%29.89 "HgN/A
3:00 PM82 °FPassing clouds.10 mph70%29.92 "HgN/A
2:00 PM82 °FPassing clouds.9 mph70%29.92 "HgN/A
1:00 PM82 °FPassing clouds.5 mph66%29.95 "HgN/A
12:00 PM81 °FPassing clouds.7 mph70%29.98 "HgN/A
11:00 AM79 °FPassing clouds.10 mph74%29.98 "HgN/A
10:00 AM77 °FPassing clouds.12 mph74%29.98 "HgN/A
9:00 AM75 °FPassing clouds.13 mph78%29.98 "HgN/A
Weather by CustomWeather, © 2016

See weather overviewHow to use our weather pages